Regional Weather Roundup
Issued by NWS

Home | Current Version | Previous Version | Graphics & Text | Print | Product List | Glossary Off
Versions: 1 2 3 4 5 6 7 8 9 10 11 12 13 14 15 16 17 18 19 20 21 22 23 24 25 26 27 28 29 30 31 32 33 34 35 36 37 38 39 40 41 42 43 44 45 46 47 48 49 50

000
ASUS43 KMKX 242100
RWRWI

WISCONSIN REGIONAL WEATHER ROUNDUP
NATIONAL WEATHER SERVICE MILWAUKEE/SULLIVAN WI
400 PM CDT THU APR 24 2014

NOTE: "FAIR" INDICATES FEW OR NO CLOUDS BELOW 12,000 FEET WITH NO
SIGNIFICANT WEATHER AND/OR OBSTRUCTIONS TO VISIBILITY.

WIZ001-002-006>008-014>016-023>028-242200-
NORTHWEST WISCONSIN

CITY           SKY/WX    TMP DP  RH WIND       PRES   REMARKS
SUPERIOR ARPT  LGT SNOW  32  32 100 NE12G17   29.79F WCI  23
ASHLAND        LGT SNOW  34  33  96 NE10      29.81F FOG     WCI  26
HAYWARD        LGT RAIN  36 N/A N/A VRB6      29.73F WCI  31
SIREN          DRIZZLE   39  39  97 E5        29.72F
RICE LAKE      LGT RAIN  41  39  93 E10       29.72F
LADYSMITH      LGT RAIN  41  38  91 E12       29.75F
EAU CLAIRE     LGT RAIN  43  41  93 SE6       29.69F FOG
MENOMONIE      RAIN      42  42  99 E9        29.70F
NEW RICHMOND   DRIZZLE   42  42 100 SE6       29.69F
OSCEOLA        RAIN      43  43 100 E7        29.72F
$$

WIZ003>005-009-010-017-018-242200-
NORTH CENTRAL WISCONSIN

CITY           SKY/WX    TMP DP  RH WIND       PRES   REMARKS
WOODRUFF       LGT SNOW  37  35  92 E12G18    29.81F WCI  29
RHINELANDER    LGT RAIN  35  33  92 E16G24    29.80F WCI  25
EAGLE RIVER    LGT SNOW  33  33 100 SE12G17   29.84F VSB 3/4 WCI  24
LAND O LAKES   LGT SNOW  34  33  97 SE7       29.87S VSB 1   WCI  28
PHILLIPS       LGT RAIN  36  34  93 E15G24    29.76F WCI  26
TOMAHAWK       RAIN      37  35  92 E9        29.78F WCI  30
MEDFORD        LGT RAIN  39  38  95 E15G23    29.73F WCI  31
MERRILL        LGT RAIN  40  38  91 SE15G24   29.78F WCI  32
$$

WIZ029-030-035-036-043>047-242200-
CENTRAL WISCONSIN

CITY           SKY/WX    TMP DP  RH WIND       PRES   REMARKS
WAUSAU         LGT RAIN  41  40  96 SE20G29   29.76F FOG
MOSINEE        RAIN      39  39 100 E16G22    29.78F WCI  30
MARSHFIELD     LGT RAIN  42  38  85 SE20G28   29.72F FOG
STEVENS POINT  LGT RAIN  40  37  90 E17G28    29.79S WCI  31
WAUPACA        LGT RAIN  45  39  81 E17G25    29.81F
WAUTOMA        NOT AVBL
WISC RAPIDS    LGT RAIN  43  40  89 E16       29.74F
CAMP DOUGLAS   NOT AVBL
$$

WIZ011>013-019>022-031-037>040-048>050-242200-
NORTHEAST WISCONSIN

CITY           SKY/WX    TMP DP  RH WIND       PRES   REMARKS
ANTIGO         CLOUDY    38  36  92 SE21G26   29.82R WCI  28
STURGEON BAY   CLOUDY    39  34  81 E10G20    29.92F WCI  32
GREEN BAY      CLOUDY    43  37  79 E17G26    29.87F
MANITOWOC      NOT AVBL
APPLETON       LGT RAIN  41  37  87 E16G24    29.84F FOG
CLINTONVILLE   LGT RAIN  41  37  87 E14G23    29.85F
OSHKOSH        LGT RAIN  45  37  73 E18G25    29.81F
$$

WIZ032>034-041-042-053>061-242200-
SOUTHWEST WISCONSIN

CITY           SKY/WX    TMP DP  RH WIND       PRES   REMARKS
LA CROSSE      CLOUDY    46  43  89 E7        29.66F FOG
SPARTA         CLOUDY    44  43  95 E8        29.69F FOG
VIROQUA        CLOUDY    47  47 100 SE9       29.66F
BOSCOBEL       CLOUDY    54  48  80 VRB3      29.67F
PRAIRIE DU CHI LGT RAIN  52  47  83 SE5       29.66F
PLATTEVILLE    PTSUNNY   53  48  83 SE15G24   29.68F
$$

WIZ056-057-062-063-064-067-068-242200-
SOUTH CENTRAL WISCONSIN

CITY           SKY/WX    TMP DP  RH WIND       PRES   REMARKS
BARABOO/DELLS  LGT RAIN  49  43  78 E14       29.71F
LONE ROCK      NOT AVBL
WATERTOWN      DRIZZLE   52  40  65 SE10G21   29.78F
MADISON        LGT RAIN  53  46  77 SE15      29.74F
MIDDLETON      CLOUDY    54  45  72 S17       29.74F
MONROE         LGT RAIN  51  51 100 SE16      29.73F
JANESVILLE     DRIZZLE   59  43  55 SE9       29.74F
$$

WIZ051-052-058>065-066-070>072-242200-
SOUTHEAST WISCONSIN

CITY           SKY/WX    TMP DP  RH WIND       PRES   REMARKS
MILWAUKEE      CLOUDY    50  31  48 SE17      29.84F
WAUKESHA       CLOUDY    52  30  43 E16G24    29.81F
MILWAUKEE/TIMM CLOUDY    52  27  37 SE13G20   29.83F
RACINE         CLOUDY    51  30  44 SE18G25   29.84F
BURLINGTON     CLOUDY    57  34  41 SW15G21   29.80F
KENOSHA        CLOUDY    57  31  37 SE14G22   29.81F
FOND DU LAC    LGT RAIN  45  37  73 SE17G29   29.81F
SHEBOYGAN      LGT RAIN  43  36  76 E9        29.87F
WEST BEND      RAIN      45  34  65 E12       29.84F
JUNEAU         DRIZZLE   49  35  58 E16G23    29.80F
$$

LSZ147-162-242200-
LAKE SUPERIOR

STATION/POSITION TIME  TEMP    WIND        PRES    WAVE
                       AIR SEA DIR/SP/G            HT/PER
                 (UTC) (F)     (DEG/KT/KT) (MB)    (FT/S)
DEVILS ISLAND    2000   33      90/ 25/ 28 1012.1F
PORT WING        2000   37      70/  7/ 10 1009.8F
SAXON HARBOR     2000           50/  3/  6 1010.5F
$$

LMZ867-665-643>646-242200-
LAKE MICHIGAN

STATION/POSITION TIME  TEMP    WIND        PRES    WAVE
                       AIR SEA DIR/SP/G            HT/PER
                 (UTC) (F)     (DEG/KT/KT) (MB)    (FT/S)
NORTHPORT PIER   2000   35      80/  2/  4 1016.3F
SISTER BAY       2053   38     100/  6/ 11   N/A
KEWAUNEE LAKESHO 2000   38      60/ 11/ 17 1014.1F
SHEBOYGAN LAKESH 2000   40      80/ 16/ 18 1012.6F
PORT WASHINGTON  2000   41      90/  6/ 11 1012.2F
MILWAUKEE LAKESH 2000   43     130/ 11/ 14   N/A
KENOSHA   LAKESH 2000   44     140/ 18/ 21   N/A
$$

TC  - TEMPERATURE IN CELSIUS
VSB - VISIBILITY IN STATUTE MILES
WCI - WIND CHILL INDEX
HX  - HEAT INDEX




USA.gov is the U.S. government's official web portal to all federal, state and local government web resources and services.